Location: �clusier
(49.9361°N, 2.7869°E)
Time: 19:40:40
(UTC+00:00)

Cosmos 1452 Rocket - Pass Details

Date: 27 October 2021
Orbit: 767 x 775 km, 74.1° (Epoch: 04 December)

Event Time Altitude Azimuth Distance (km) Brightness Sun altitude
Rises 05:30:20 0° 336° (NNW) 3,266 6.4 -10.2°
Reaches altitude 10° 05:32:44 10° 338° (NNW) 2,334 5.7 -9.8°
Maximum altitude 05:38:03 79° 65° (ENE) 795 3.7 -9.0°
Drops below altitude 10° 05:43:19 10° 153° (SSE) 2,316 6.5 -8.1°
Sets 05:45:41 0° 155° (SSE) 3,238 7.3 -7.8°
